FIN165 EFOU-EFHK

Flight info

Callsign FIN165
Flight time 0h 44m
Altitude 35000
Route MIKNU5B MIKNU Y86 LUSEP LUSEP5A
Aircraft A319/M-SDE3FGHIRWY/LB1

Departure

Time 2026-04-30 12:03
Airport Oulu Airport (EFOU)

Arrival

Time 2026-04-30 12:47
Airport Helsinki Vantaa Airport (EFHK)
Time Latitude Longitude Altitude Speed Heading
2026-04-30 11:36 64.92802 25.37360 51 ft 0 kts 31°
2026-04-30 11:43 64.92802 25.37359 51 ft 0 kts 31°
2026-04-30 11:56 64.92801 25.37358 51 ft 1 kts 31°
2026-04-30 11:56 64.92781 25.37327 51 ft 4 kts 36°
2026-04-30 11:56 64.92760 25.37287 48 ft 4 kts 51°
2026-04-30 11:56 64.92750 25.37238 51 ft 4 kts 102°
2026-04-30 11:57 64.92751 25.37221 50 ft 0 kts 121°
2026-04-30 11:59 64.92751 25.37223 50 ft 1 kts 121°
2026-04-30 11:59 64.92737 25.37279 51 ft 7 kts 121°
2026-04-30 11:59 64.92703 25.37413 48 ft 11 kts 121°
2026-04-30 12:00 64.92663 25.37570 49 ft 10 kts 121°
2026-04-30 12:00 64.92628 25.37707 49 ft 7 kts 120°
2026-04-30 12:00 64.92602 25.37812 49 ft 8 kts 120°
2026-04-30 12:00 64.92564 25.37917 50 ft 9 kts 148°
2026-04-30 12:01 64.92519 25.37933 50 ft 2 kts 190°
2026-04-30 12:01 64.92516 25.37931 50 ft 1 kts 193°
2026-04-30 12:01 64.92504 25.37915 50 ft 3 kts 214°
2026-04-30 12:01 64.92487 25.37856 48 ft 6 kts 243°
2026-04-30 12:02 64.92465 25.37712 45 ft 13 kts 259°
2026-04-30 12:02 64.92466 25.37595 45 ft 12 kts 284°
2026-04-30 12:02 64.92607 25.37029 48 ft 80 kts 301°
2026-04-30 12:02 64.93018 25.35413 68 ft 144 kts 301°
2026-04-30 12:03 64.93567 25.33312 703 ft 152 kts 301°
2026-04-30 12:03 64.94676 25.28936 2169 ft 173 kts 303°
2026-04-30 12:03 64.95338 25.26359 2721 ft 191 kts 304°
2026-04-30 12:04 64.95905 25.23431 3531 ft 204 kts 282°
2026-04-30 12:04 64.95579 25.20090 4325 ft 226 kts 239°
2026-04-30 12:04 64.94367 25.17426 5016 ft 253 kts 220°
2026-04-30 12:04 64.92792 25.15120 5658 ft 277 kts 213°
2026-04-30 12:05 64.91047 25.13043 6652 ft 286 kts 202°
2026-04-30 12:05 64.89048 25.12314 7630 ft 297 kts 180°
2026-04-30 12:05 64.86998 25.13207 8633 ft 304 kts 162°
2026-04-30 12:05 64.84961 25.14779 9649 ft 310 kts 163°
2026-04-30 12:06 64.82884 25.16298 10570 ft 316 kts 163°
2026-04-30 12:06 64.80706 25.17850 11074 ft 339 kts 164°
2026-04-30 12:06 64.78363 25.19503 11458 ft 363 kts 164°
2026-04-30 12:06 64.75897 25.21252 11774 ft 387 kts 163°
2026-04-30 12:07 64.73247 25.23150 12092 ft 407 kts 163°
2026-04-30 12:07 64.70506 25.25126 12730 ft 416 kts 163°
2026-04-30 12:07 64.67716 25.27139 13445 ft 424 kts 163°
2026-04-30 12:07 64.64870 25.29192 14128 ft 431 kts 163°
2026-04-30 12:08 64.61987 25.31265 14765 ft 437 kts 163°
2026-04-30 12:08 64.59065 25.33354 15418 ft 442 kts 163°
2026-04-30 12:08 64.56100 25.35462 16057 ft 448 kts 163°
2026-04-30 12:08 64.53092 25.37596 16695 ft 454 kts 163°
2026-04-30 12:09 64.50090 25.39721 17331 ft 460 kts 163°
2026-04-30 12:09 64.47009 25.41875 17958 ft 465 kts 165°
2026-04-30 12:09 64.43817 25.43307 18536 ft 469 kts 175°
2026-04-30 12:09 64.40553 25.43560 19056 ft 471 kts 184°
2026-04-30 12:10 64.37255 25.43347 19582 ft 475 kts 184°
2026-04-30 12:10 64.33939 25.43145 20094 ft 479 kts 184°
2026-04-30 12:10 64.30593 25.42953 20612 ft 483 kts 184°
2026-04-30 12:10 64.27218 25.42773 21103 ft 489 kts 183°
2026-04-30 12:11 64.23790 25.42595 21544 ft 494 kts 183°
2026-04-30 12:11 64.20336 25.42418 22009 ft 498 kts 183°
2026-04-30 12:11 64.16857 25.42242 22475 ft 502 kts 183°
2026-04-30 12:11 64.13350 25.42060 22922 ft 506 kts 183°
2026-04-30 12:12 64.09804 25.41864 23378 ft 510 kts 183°
2026-04-30 12:12 64.06242 25.41656 23812 ft 514 kts 183°
2026-04-30 12:12 64.02650 25.41445 24159 ft 518 kts 183°
2026-04-30 12:12 63.99038 25.41246 24548 ft 520 kts 183°
2026-04-30 12:13 63.95453 25.41063 24909 ft 523 kts 183°
2026-04-30 12:13 63.91798 25.40879 25264 ft 527 kts 183°
2026-04-30 12:13 63.88125 25.40697 25616 ft 530 kts 183°
2026-04-30 12:13 63.84426 25.40514 25936 ft 533 kts 183°
2026-04-30 12:14 63.80708 25.40317 26266 ft 536 kts 184°
2026-04-30 12:14 63.76962 25.40114 26587 ft 540 kts 184°
2026-04-30 12:14 63.73188 25.39926 26907 ft 543 kts 184°
2026-04-30 12:14 63.69404 25.39740 27213 ft 546 kts 184°
2026-04-30 12:15 63.65601 25.39539 27522 ft 548 kts 184°
2026-04-30 12:15 63.61780 25.39330 27846 ft 550 kts 184°
2026-04-30 12:15 63.57946 25.39127 28199 ft 552 kts 184°
2026-04-30 12:15 63.54106 25.38931 28671 ft 552 kts 184°
2026-04-30 12:16 63.50259 25.38740 29011 ft 554 kts 184°
2026-04-30 12:16 63.46399 25.38547 29395 ft 556 kts 184°
2026-04-30 12:16 63.42531 25.38348 29823 ft 556 kts 184°
2026-04-30 12:16 63.38659 25.38147 30258 ft 556 kts 184°
2026-04-30 12:17 63.30917 25.37752 31037 ft 556 kts 184°
2026-04-30 12:17 63.27053 25.37557 31442 ft 555 kts 183°
2026-04-30 12:17 63.23196 25.37361 31847 ft 555 kts 183°
2026-04-30 12:18 63.19337 25.37163 32256 ft 554 kts 183°
2026-04-30 12:18 63.15529 25.36963 32660 ft 554 kts 183°
2026-04-30 12:18 63.11671 25.36763 33071 ft 554 kts 183°
2026-04-30 12:18 63.07820 25.36560 33492 ft 553 kts 183°
2026-04-30 12:19 63.03964 25.36348 33912 ft 553 kts 183°
2026-04-30 12:19 63.00118 25.36140 34290 ft 552 kts 183°
2026-04-30 12:19 62.96279 25.35937 34727 ft 550 kts 182°
2026-04-30 12:19 62.92458 25.35745 35046 ft 547 kts 182°
2026-04-30 12:20 62.84864 25.35381 35153 ft 544 kts 182°
2026-04-30 12:20 62.81110 25.35203 35144 ft 533 kts 182°
2026-04-30 12:20 62.77504 25.35029 35143 ft 517 kts 182°
2026-04-30 12:21 62.73958 25.34857 35146 ft 501 kts 182°
2026-04-30 12:21 62.70526 25.34690 35148 ft 486 kts 182°
2026-04-30 12:21 62.67190 25.34526 35121 ft 471 kts 182°
2026-04-30 12:21 62.63957 25.34362 35154 ft 459 kts 182°
2026-04-30 12:22 62.57624 25.34041 35136 ft 453 kts 182°
2026-04-30 12:22 62.51324 25.33720 35141 ft 453 kts 182°
2026-04-30 12:23 62.45023 25.33431 35142 ft 453 kts 182°
2026-04-30 12:23 62.38725 25.33173 35141 ft 452 kts 182°
2026-04-30 12:24 62.32428 25.32881 35135 ft 452 kts 182°
2026-04-30 12:24 62.26137 25.32572 35148 ft 452 kts 182°
2026-04-30 12:25 62.19879 25.32264 34774 ft 456 kts 182°
2026-04-30 12:25 62.16724 25.32113 34644 ft 451 kts 182°
2026-04-30 12:25 62.13589 25.31965 34545 ft 450 kts 182°
2026-04-30 12:26 62.07326 25.31661 34402 ft 450 kts 182°
2026-04-30 12:26 62.01025 25.31375 34190 ft 453 kts 181°
2026-04-30 12:27 61.97877 25.31229 34087 ft 452 kts 181°
2026-04-30 12:27 61.94737 25.31078 33971 ft 451 kts 181°
2026-04-30 12:27 61.91598 25.30922 33861 ft 450 kts 181°
2026-04-30 12:27 61.88458 25.30767 33753 ft 450 kts 181°
2026-04-30 12:28 61.85336 25.30619 33635 ft 449 kts 181°
2026-04-30 12:28 61.82214 25.30472 33526 ft 448 kts 181°
2026-04-30 12:28 61.79103 25.30333 33417 ft 447 kts 181°
2026-04-30 12:28 61.75977 25.30192 33318 ft 455 kts 181°
2026-04-30 12:29 61.72778 25.30043 33055 ft 478 kts 181°
2026-04-30 12:29 61.69352 25.29886 31910 ft 502 kts 181°
2026-04-30 12:29 61.65826 25.29725 30875 ft 512 kts 182°
2026-04-30 12:29 61.62222 25.29559 29601 ft 524 kts 182°
2026-04-30 12:30 61.58538 25.29387 28305 ft 531 kts 182°
2026-04-30 12:30 61.54815 25.29210 26872 ft 539 kts 181°
2026-04-30 12:30 61.51046 25.29030 25421 ft 546 kts 181°
2026-04-30 12:30 61.47226 25.28847 24028 ft 550 kts 181°
2026-04-30 12:31 61.43400 25.28665 22668 ft 550 kts 181°
2026-04-30 12:31 61.39635 25.28488 21589 ft 534 kts 181°
2026-04-30 12:31 61.35976 25.28323 20603 ft 517 kts 181°
2026-04-30 12:31 61.32424 25.28166 19650 ft 504 kts 181°
2026-04-30 12:32 61.28965 25.28013 18711 ft 492 kts 181°
2026-04-30 12:32 61.25581 25.27863 17740 ft 480 kts 181°
2026-04-30 12:32 61.22277 25.27718 16893 ft 467 kts 182°
2026-04-30 12:32 61.19067 25.27575 16071 ft 457 kts 182°
2026-04-30 12:33 61.15954 25.27431 15298 ft 448 kts 182°
2026-04-30 12:33 61.12872 25.27285 14554 ft 439 kts 182°
2026-04-30 12:33 61.09852 25.27145 13808 ft 429 kts 182°
2026-04-30 12:33 61.06899 25.27016 13101 ft 418 kts 182°
2026-04-30 12:34 61.04080 25.26898 12931 ft 392 kts 181°
2026-04-30 12:34 61.01435 25.26787 12838 ft 369 kts 182°
2026-04-30 12:34 60.98944 25.26675 12738 ft 349 kts 182°
2026-04-30 12:34 60.96572 25.26563 12594 ft 332 kts 182°
2026-04-30 12:35 60.94313 25.26479 12461 ft 318 kts 180°
2026-04-30 12:35 60.92149 25.26540 12308 ft 304 kts 179°
2026-04-30 12:35 60.90079 25.26687 12185 ft 291 kts 178°
2026-04-30 12:35 60.88100 25.26854 12057 ft 279 kts 178°
2026-04-30 12:36 60.86186 25.27016 11939 ft 272 kts 178°
2026-04-30 12:36 60.84300 25.27167 11822 ft 270 kts 178°
2026-04-30 12:36 60.82423 25.27306 11696 ft 270 kts 178°
2026-04-30 12:36 60.80513 25.27437 11210 ft 279 kts 178°
2026-04-30 12:37 60.78551 25.27568 10753 ft 285 kts 179°
2026-04-30 12:37 60.76547 25.27698 10303 ft 291 kts 179°
2026-04-30 12:37 60.74542 25.27827 10156 ft 283 kts 179°
2026-04-30 12:37 60.72629 25.27935 10010 ft 275 kts 181°
2026-04-30 12:38 60.70753 25.27454 9873 ft 263 kts 197°
2026-04-30 12:38 60.69091 25.26230 9577 ft 253 kts 211°
2026-04-30 12:38 60.67628 25.24337 9213 ft 245 kts 225°
2026-04-30 12:38 60.66429 25.21946 8845 ft 238 kts 236°
2026-04-30 12:39 60.65324 25.19439 8454 ft 237 kts 234°
2026-04-30 12:39 60.64011 25.17383 8056 ft 243 kts 207°
2026-04-30 12:39 60.62358 25.16753 7679 ft 244 kts 175°
2026-04-30 12:39 60.60726 25.17592 7303 ft 242 kts 160°
2026-04-30 12:40 60.59130 25.18665 6899 ft 240 kts 160°
2026-04-30 12:40 60.57555 25.19724 6528 ft 237 kts 160°
2026-04-30 12:40 60.56025 25.20748 6349 ft 225 kts 160°
2026-04-30 12:40 60.55055 25.21393 6241 ft 218 kts 160°
2026-04-30 12:41 60.53604 25.22355 5795 ft 223 kts 161°
2026-04-30 12:41 60.52108 25.23348 5283 ft 229 kts 161°
2026-04-30 12:41 60.50580 25.24359 4824 ft 230 kts 161°
2026-04-30 12:41 60.49067 25.25358 4438 ft 228 kts 162°
2026-04-30 12:42 60.47538 25.25872 4192 ft 215 kts 182°
2026-04-30 12:42 60.46143 25.25367 4034 ft 198 kts 201°
2026-04-30 12:42 60.44952 25.24079 3689 ft 191 kts 220°
2026-04-30 12:42 60.44032 25.22250 3431 ft 179 kts 231°
2026-04-30 12:43 60.43235 25.20477 3205 ft 160 kts 232°
2026-04-30 12:43 60.42521 25.18887 2978 ft 146 kts 233°
2026-04-30 12:43 60.41864 25.17423 2781 ft 137 kts 233°
2026-04-30 12:43 60.41232 25.16013 2595 ft 134 kts 233°
2026-04-30 12:44 60.40608 25.14622 2412 ft 133 kts 233°
2026-04-30 12:44 60.39987 25.13241 2228 ft 132 kts 233°
2026-04-30 12:44 60.39373 25.11878 2058 ft 131 kts 233°
2026-04-30 12:44 60.38760 25.10519 1877 ft 131 kts 232°
2026-04-30 12:45 60.38150 25.09163 1676 ft 130 kts 232°
2026-04-30 12:45 60.37545 25.07824 1541 ft 129 kts 232°
2026-04-30 12:45 60.36939 25.06484 1338 ft 128 kts 231°
2026-04-30 12:45 60.36347 25.05164 1179 ft 125 kts 231°
2026-04-30 12:46 60.35767 25.03882 1000 ft 125 kts 230°
2026-04-30 12:46 60.35189 25.02599 846 ft 122 kts 230°
2026-04-30 12:46 60.34623 25.01329 639 ft 121 kts 230°
2026-04-30 12:46 60.34056 25.00075 519 ft 121 kts 229°
2026-04-30 12:47 60.33484 24.98835 318 ft 120 kts 230°
2026-04-30 12:47 60.32922 24.97592 181 ft 119 kts 230°
2026-04-30 12:47 60.32438 24.96518 175 ft 83 kts 227°
2026-04-30 12:47 60.32189 24.95980 177 ft 30 kts 227°
2026-04-30 12:48 60.32092 24.95820 175 ft 16 kts 197°
2026-04-30 12:48 60.32000 24.95895 173 ft 12 kts 137°
2026-04-30 12:48 60.31935 24.96017 168 ft 11 kts 137°
2026-04-30 12:48 60.31882 24.96112 167 ft 11 kts 138°
2026-04-30 12:49 60.31853 24.96263 167 ft 13 kts 89°
2026-04-30 12:49 60.31898 24.96418 167 ft 14 kts 47°
2026-04-30 12:49 60.31965 24.96564 167 ft 15 kts 47°
2026-04-30 12:49 60.32008 24.96658 167 ft 5 kts 48°
2026-04-30 12:50 60.32017 24.96719 167 ft 3 kts 102°
2026-04-30 12:50 60.31998 24.96737 167 ft 3 kts 169°
2026-04-30 12:50 60.31984 24.96737 167 ft 2 kts 177°
2026-04-30 12:50 60.31969 24.96739 167 ft 2 kts 175°
2026-04-30 12:51 60.31963 24.96740 167 ft 0 kts 175°